Location: Stara Lesna
(49.1528°N, 20.2911°E)
Time: 10:11:36
(UTC+02:00)

Cosmos 405 Rocket - Pass Details

Date: 13 July 2020
Orbit: 489 x 555 km, 81.3° (Epoch: 05 August)

Event Time Altitude Azimuth Distance (km) Brightness Sun altitude
Exits shadow 01:30:39 20° 125° (SE) 1,243 4.4 -18.3°
Maximum altitude 01:32:04 25° 92° (E) 1,074 4.4 -18.3°
Drops below altitude 10° 01:35:11 10° 36° (NE) 1,728 6.4 -18.2°
Sets 01:37:33 0° 23° (NNE) 2,608 7.9 -18.1°
